Tracking 29487 objects as of 10-Sep-2024
HD Live streaming from Space Station
objects crossing your sky now

DELTA 1 DEB (YO)

Track DELTA 1 DEB (YO) now!
10-day predictions


NORAD ID: 228
Int'l Code: 1962-002C
Perigee: 513.9 km
Apogee: 526.3 km
Inclination: 48.4 °
Period: 94.9 minutes
Semi major axis: 6891 km
RCS: 0.049 m2 (small)
Launch date: February 8, 1962
Source: United States (US)
Launch site: AIR FORCE EASTERN TEST RANGE (AFETR)

Note: This is SATELLITE DEBRIS
Your satellite tracking list
Your tracking list is empty




NASA's NSSDC Master Catalog

Two Line Element Set (TLE):
1   228U 62002C   24253.88128664  .00031041  00000-0  15255-2 0  9990
2   228  48.4253  53.6209 0008997   0.2785 359.8149 15.17658124368174
Source of the keplerian elements: AFSPC